This is the latest recevied weather packets stored in our database for station/object WD0REW. If no packets are shown the sender has not sent any weather packets the latest 10 day(s).
| Time | Temp. | Humidity | Pressure | Rain* | Wind** | Luminosity | Snow |
|---|---|---|---|---|---|---|---|
| 1778006077 | 11.67° C | 77% | 1009.5 hPa | 0 mm | - | 63 W/m² | - |
| 1778005773 | 11.67° C | 77% | 1009.5 hPa | 0 mm | - | 56 W/m² | - |
| 1778005470 | 12.22° C | 76% | 1009.2 hPa | 0 mm | - | 86 W/m² | - |
| 1778005166 | 12.22° C | 77% | 1009.2 hPa | 0 mm | - | 85 W/m² | - |
| 1778004864 | 12.22° C | 76% | 1009.2 hPa | 0 mm | - | 120 W/m² | - |
| 1778004561 | 12.22° C | 76% | 1009.1 hPa | 0 mm | - | 107 W/m² | - |
| 1778004257 | 12.78° C | 75% | 1009.3 hPa | 0 mm | - | 166 W/m² | - |
| 1778003954 | 12.78° C | 75% | 1009.1 hPa | 0 mm | - | 180 W/m² | - |
| 1778003650 | 12.78° C | 76% | 1009.1 hPa | 0 mm | - | 195 W/m² | - |
| 1778003347 | 12.78° C | 75% | 1009.1 hPa | 0 mm | - | 204 W/m² | - |
| 1778003044 | 12.78° C | 76% | 1009.5 hPa | 0 mm | - | 175 W/m² | - |
| 1778002740 | 12.78° C | 76% | 1009.5 hPa | 0 mm | - | 159 W/m² | - |
| 1778002436 | 12.78° C | 77% | 1009.3 hPa | 0 mm | - | 150 W/m² | - |
| 1778002134 | 12.78° C | 76% | 1009.2 hPa | 0 mm | - | 129 W/m² | - |
| 1778001832 | 12.78° C | 77% | 1009.5 hPa | 0 mm | - | 108 W/m² | - |
| 1778001531 | 12.78° C | 76% | 1009.5 hPa | 0 mm | - | 101 W/m² | - |
| 1778001228 | 13.33° C | 76% | 1009.3 hPa | 0 mm | - | 105 W/m² | - |
| 1778000924 | 13.33° C | 76% | 1009.5 hPa | 0 mm | - | 96 W/m² | - |
| 1778000621 | 12.78° C | 77% | 1009 hPa | 0 mm | - | 121 W/m² | - |
| 1778000317 | 12.78° C | 77% | 1009 hPa | 0 mm | - | 143 W/m² | - |
| 1778000013 | 12.78° C | 78% | 1009 hPa | 0 mm | - | 142 W/m² | - |
| 1777999708 | 13.33° C | 76% | 1008.9 hPa | 0 mm | - | 138 W/m² | - |
| 1777999405 | 13.33° C | 76% | 1008.9 hPa | 0 mm | - | 208 W/m² | - |
| 1777999104 | 13.33° C | 76% | 1008.9 hPa | 0 mm | - | 292 W/m² | - |
| 1777998802 | 12.78° C | 76% | 1009.1 hPa | 0 mm | - | 181 W/m² | - |
* Rain latest hour (hover to see other rain measurements)
** Current wind speed in m/s (hover to see current wind gust speed)